User: anonymous   Login
Location: Dompnac
(44.5644°N, 4.1026°E)
Time: 00:05:49
(UTC+00:00)
Language:

SJ-6B - Orbit

View from above orbital plane
View from above orbital plane
View from above satellite
View from above satellite

Ground track
Ground track

The orbit data is extracted from the following two-line orbital elements,

1 28415U 04035C   20332.38869864 +.00000819 +00000-0 +57370-4 0  9998
2 28415 097.5943 012.0055 0052170 155.3679 205.0058 15.06960207888171
Epoch (UTC): 27 November 2020 09:19:43
Eccentricity: 0.0052170
inclination: 97.5943°
perigee height: 509 km
apogee height: 581 km
right ascension of ascending node: 12.0055°
argument of perigee: 155.3679°
revolutions per day: 15.06960207
mean anomaly at epoch: 205.0058°
orbit number at epoch: 88817

The dashed part of the orbit path shows where the satellite is in the earth's shadow,  

DLR